Location: Newark
(41.8083°N, 72.2500°W)
Time: 02:02:14
(UTC+00:00)

Courier 1B - All Passes

Search period start: 30 November 2021 00:00
Search period end: 10 December 2021 00:00
Orbit: 962 x 1209 km, 28.3° (Epoch: 29 November)

Date Brightness Start Highest point End Pass type
(mag) Time Alt. Az. Time Alt. Az. Time Alt. Az.
30 Nov - 01:19:49 10° SW 01:25:12 25° S 01:30:25 10° SE visible
30 Nov - 03:14:11 10° SW 03:18:13 17° SSW 03:22:11 10° SSE night (unlit)
30 Nov - 22:33:27 10° SSW 22:38:28 20° SSE 22:43:17 10° ESE visible
01 Dec - 00:26:04 10° SW 00:31:38 26° S 00:37:00 10° SE visible
01 Dec - 02:20:03 10° WSW 02:24:44 20° SSW 02:29:18 10° SSE visible
01 Dec - 21:40:15 10° SSW 21:44:52 18° SSE 21:49:20 10° ESE visible
01 Dec - 23:32:22 10° SW 23:38:03 26° S 23:43:30 10° ESE visible
02 Dec - 01:26:02 10° WSW 01:31:12 23° S 01:36:13 10° SE visible
02 Dec - 03:22:00 10° SW 03:24:07 12° SSW 03:26:13 10° S night (unlit)
02 Dec - 20:47:20 10° S 20:51:16 15° SSE 20:55:07 10° SE daylight
02 Dec - 22:38:43 10° SW 22:44:26 25° S 22:49:54 10° ESE visible
03 Dec - 00:32:06 10° WSW 00:37:40 25° S 00:42:59 10° SE visible
03 Dec - 02:27:01 10° SW 02:30:39 15° SSW 02:34:13 10° SSE visible
03 Dec - 19:54:59 10° S 19:57:41 12° SSE 20:00:19 10° SE daylight
03 Dec - 21:45:11 10° SW 21:50:49 23° SSE 21:56:12 10° ESE visible
03 Dec - 23:38:13 10° WSW 23:44:04 27° S 23:49:38 10° SE visible
04 Dec - 01:32:37 10° WSW 01:37:10 19° SSW 01:41:34 10° SSE visible
04 Dec - 20:51:47 10° SSW 20:57:10 21° SSE 21:02:21 10° ESE daylight
04 Dec - 22:44:25 10° SW 22:50:27 27° S 22:56:11 10° SE visible
05 Dec - 00:38:26 10° WSW 00:43:38 22° SSW 00:48:38 10° SSE visible
05 Dec - 19:58:35 10° SSW 20:03:31 18° SSE 20:08:19 10° ESE daylight
05 Dec - 21:50:40 10° SW 21:56:48 27° S 22:02:38 10° ESE visible
05 Dec - 23:44:22 10° WSW 23:50:03 25° S 23:55:29 10° SE visible
06 Dec - 01:39:58 10° SW 01:43:02 13° SSW 01:46:02 10° S visible
06 Dec - 19:05:43 10° S 19:09:53 15° SSE 19:13:59 10° SE daylight
06 Dec - 20:57:02 10° SW 21:03:06 26° S 21:08:57 10° ESE daylight
06 Dec - 22:50:23 10° WSW 22:56:26 27° S 23:02:12 10° SE visible
07 Dec - 00:45:12 10° WSW 00:49:31 17° SSW 00:53:42 10° SSE visible
07 Dec - 18:13:28 10° S 18:16:15 12° SSE 18:19:01 10° SE daylight
07 Dec - 20:03:30 10° SW 20:09:25 24° SSE 20:15:10 10° ESE daylight
07 Dec - 21:56:30 10° WSW 22:02:46 28° S 22:08:46 10° SE visible
07 Dec - 23:50:49 10° WSW 23:55:58 21° SSW 00:00:56 10° SSE visible
08 Dec - 19:10:09 10° SSW 19:15:44 21° SSE 19:21:12 10° ESE daylight
08 Dec - 21:02:41 10° SW 21:09:04 29° S 21:15:13 10° ESE daylight
08 Dec - 22:56:38 10° WSW 23:02:23 24° SSW 23:07:53 10° SE visible
09 Dec - 00:53:15 10° SW 00:55:20 11° SSW 00:57:23 10° S visible
09 Dec - 18:17:03 10° SSW 18:22:03 18° SSE 18:27:01 10° ESE daylight
09 Dec - 20:08:58 10° SW 20:15:21 28° S 20:21:34 10° ESE daylight
09 Dec - 22:02:35 10° WSW 22:08:43 27° S 22:14:38 10° SE visible
